"startDT [UTC]","vpos","CH4 [ppm]","stdev(CH4) [ppm]","CO2 [ppm]","stdev(CO2) [ppm]","H2O_reported [%]","stdev(H2O_reported)","CavityPressure [torr]","CavityTemp [C]","OutletValve","CH4_dry [ppm]","CO2_dry [ppm]","DasTemp [C]","EtalonTemp [C]","WarmBoxTemp [C]","MPVPosition","T_ECpre [C]","T_EC1 [C]","T_EC2 [C]","p_inlet [hPa]","p_in [hPa]","p_out [hPa]","T_inlet [C]","RH_inlet [%]","dwpt_inlet [C]","T_vent [C]","RH_vent [%]","dwpt_vent [C]","flow_vent [l min-1]","flow_inlet [l min-1]","dwpt_sample [C]","T_room [C]"
2013-12-31 00:00:00,0.0,1.92713,0.00017,401.135,0.000,0.0733,0.0014,140.002,45.000,31791.93915,1.92862,401.489,35.081,45.059,45.000,0.00,0.11,-272.57,-272.64,-21,581,-6,23.5,2.0,-28.3,23.6,2.2,-27.7,5.73,2.54,-15.7,29.6
2013-12-31 00:01:00,0.0,1.92644,0.00047,401.135,0.000,0.0737,0.0028,140.000,45.000,31791.88346,1.92807,401.490,35.090,45.059,45.000,0.00,0.11,-272.57,-272.64,-21,581,-6,23.5,2.0,-28.3,23.6,2.2,-27.7,5.73,2.51,-15.7,29.6
2013-12-31 00:02:00,0.0,1.92638,0.00063,401.135,0.000,0.0720,0.0030,140.005,45.000,31792.26968,1.92779,401.482,35.104,45.059,45.000,0.00,0.11,-272.57,-272.63,-21,581,-6,23.5,2.0,-28.3,23.6,2.1,-27.7,5.73,2.50,-15.7,29.6
2013-12-31 00:03:00,0.0,1.92618,0.00053,401.135,0.000,0.0725,0.0012,139.997,45.000,31789.98168,1.92745,401.486,35.115,45.059,45.000,0.00,0.11,-272.57,-272.64,-21,581,-6,23.6,2.0,-28.3,23.6,2.2,-27.7,5.73,2.50,-15.7,29.6
2013-12-31 00:04:00,0.0,1.92609,0.00034,401.135,0.000,0.0728,0.0013,139.996,45.000,31789.43578,1.92749,401.485,35.098,45.059,45.000,0.00,0.11,-272.57,-272.63,-21,581,-6,23.6,2.0,-28.3,23.6,2.2,-27.7,5.73,2.52,-15.7,29.6
2013-12-31 00:05:00,0.0,1.92598,0.00022,401.135,0.000,0.0735,0.0006,140.002,45.000,31792.54249,1.92740,401.489,35.118,45.059,45.000,0.00,0.11,-272.57,-272.63,-21,581,-6,23.5,2.0,-28.4,23.6,2.1,-27.7,5.73,2.54,-15.7,29.6
2013-12-31 00:06:00,0.0,1.92661,0.00017,401.135,0.000,0.0737,0.0024,140.003,45.000,31795.20288,1.92793,401.491,35.121,45.059,45.000,0.00,0.11,-272.57,-272.63,-21,581,-6,23.6,2.0,-28.3,23.6,2.1,-27.7,5.73,2.55,-15.7,29.6
2013-12-31 00:07:00,0.0,1.92633,0.00028,401.135,0.000,0.0739,0.0016,139.994,45.000,31790.92784,1.92774,401.490,35.120,45.059,45.000,0.00,0.11,-272.57,-272.63,-21,581,-6,23.6,2.0,-28.3,23.6,2.2,-27.7,5.73,2.56,-15.7,29.6
2013-12-31 00:08:00,0.0,1.92650,0.00015,401.135,0.000,0.0740,0.0008,140.003,45.000,31795.26930,1.92784,401.491,35.125,45.059,45.000,0.00,0.11,-272.57,-272.63,-21,581,-6,23.6,2.0,-28.3,23.6,2.2,-27.7,5.73,2.54,-15.7,29.6
2013-12-31 00:09:00,0.0,1.92690,0.00031,401.135,0.000,0.0728,0.0014,140.005,45.000,31795.87685,1.92826,401.487,35.125,45.059,45.000,0.00,0.11,-272.57,-272.63,-21,581,-6,23.6,2.0,-28.3,23.6,2.2,-27.7,5.73,2.51,-15.7,29.6
2013-12-31 00:10:00,0.0,1.92646,0.00036,401.135,0.000,0.0747,0.0031,140.002,45.000,31795.14302,1.92792,401.495,35.125,45.059,45.000,0.00,0.11,-272.57,-272.63,-21,581,-6,23.5,2.0,-28.3,23.6,2.2,-27.6,5.73,2.50,-15.7,29.6
2013-12-31 00:11:00,0.0,1.92636,0.00056,401.135,0.000,0.0755,0.0028,140.001,45.000,31795.97556,1.92767,401.498,35.125,45.059,45.000,0.00,0.11,-272.57,-272.64,-21,581,-6,23.5,2.0,-28.3,23.6,2.2,-27.6,5.73,2.50,-15.7,29.6
2013-12-31 00:12:00,0.0,1.92634,0.00028,401.135,0.000,0.0743,0.0022,139.996,45.000,31795.80472,1.92787,401.492,35.125,45.059,45.000,0.00,0.11,-272.58,-272.63,-22,581,-6,23.6,2.0,-28.3,23.6,2.2,-27.6,5.73,2.52,-15.6,29.6
2013-12-31 00:13:00,0.0,1.92724,0.00028,401.135,0.000,0.0727,0.0007,140.004,45.000,31795.42442,1.92837,401.488,35.125,45.059,45.000,0.00,0.11,-272.57,-272.64,-21,582,-6,23.6,2.0,-28.3,23.6,2.2,-27.5,5.73,2.54,-15.6,29.6
2013-12-31 00:14:00,0.0,1.92727,0.00023,401.135,0.000,0.0747,0.0013,140.003,45.000,31793.32014,1.92881,401.493,35.125,45.059,45.000,0.00,0.11,-272.57,-272.64,-21,582,-6,23.6,2.0,-28.3,23.6,2.2,-27.5,5.73,2.55,-15.7,29.6
2013-12-31 00:15:00,0.0,1.92670,0.00046,401.135,0.000,0.0734,0.0013,140.001,45.000,31794.21576,1.92829,401.490,35.125,45.059,45.000,0.00,0.11,-272.57,-272.64,-22,581,-6,23.6,2.0,-28.3,23.6,2.2,-27.5,5.73,2.55,-15.6,29.7
2013-12-31 00:16:00,0.0,1.92623,0.00034,401.135,0.000,0.0744,0.0007,139.998,45.000,31792.23107,1.92747,401.492,35.134,45.059,45.000,0.00,0.11,-272.57,-272.64,-21,582,-6,23.6,2.0,-28.3,23.7,2.2,-27.5,5.73,2.55,-15.6,29.6
2013-12-31 00:17:00,0.0,1.92645,0.00031,401.135,0.000,0.0749,0.0024,139.994,45.000,31791.67975,1.92789,401.495,35.141,45.059,45.000,0.00,0.11,-272.56,-272.63,-21,582,-6,23.6,2.0,-28.3,23.7,2.2,-27.6,5.73,2.53,-15.6,29.6
2013-12-31 00:18:00,0.0,1.92673,0.00047,401.135,0.000,0.0732,0.0024,139.998,45.000,31792.94552,1.92793,401.489,35.153,45.059,45.000,0.00,0.11,-272.57,-272.64,-21,582,-6,23.6,2.0,-28.3,23.7,2.2,-27.5,5.73,2.50,-15.6,29.6
2013-12-31 00:19:00,0.0,1.92665,0.00052,401.135,0.000,0.0746,0.0010,140.009,45.000,31796.15927,1.92819,401.495,35.157,45.059,45.000,0.00,0.11,-272.57,-272.63,-21,581,-6,23.6,2.0,-28.3,23.7,2.2,-27.5,5.73,2.49,-15.6,29.6
2013-12-31 00:20:00,0.0,1.92642,0.00022,401.135,0.000,0.0725,0.0035,140.001,45.000,31794.58856,1.92788,401.484,35.143,45.059,45.000,0.00,0.11,-272.56,-272.64,-21,581,-6,23.6,2.0,-28.3,23.7,2.2,-27.5,5.73,2.51,-15.6,29.7
2013-12-31 00:21:00,0.0,1.92633,0.00032,401.135,0.000,0.0739,0.0016,140.004,45.000,31794.36091,1.92779,401.492,35.160,45.059,45.000,0.00,0.11,-272.57,-272.65,-21,581,-6,23.6,2.0,-28.3,23.7,2.2,-27.5,5.73,2.54,-15.6,29.7
2013-12-31 00:22:00,0.0,1.92641,0.00039,401.135,0.000,0.0741,0.0025,140.001,45.000,31794.22389,1.92776,401.493,35.169,45.059,45.000,0.00,0.11,-272.58,-272.63,-22,582,-6,23.6,2.0,-28.3,23.7,2.2,-27.5,5.73,2.55,-15.6,29.6
2013-12-31 00:23:00,0.0,1.92670,0.00025,401.135,0.000,0.0744,0.0012,140.008,45.000,31795.45412,1.92797,401.492,35.178,45.059,45.000,0.00,0.11,-272.57,-272.61,-22,581,-6,23.6,2.0,-28.3,23.7,2.2,-27.5,5.73,2.55,-15.6,29.6
2013-12-31 00:24:00,0.0,1.92709,0.00029,401.135,0.000,0.0740,0.0018,140.000,45.000,31793.14087,1.92849,401.493,35.187,45.059,45.000,0.00,0.11,-272.57,-272.64,-22,581,-6,23.6,2.0,-28.3,23.7,2.2,-27.5,5.73,2.54,-15.6,29.6
2013-12-31 00:25:00,0.0,1.92686,0.00014,401.135,0.000,0.0729,0.0021,140.000,45.000,31792.00244,1.92825,401.487,35.188,45.059,45.000,0.00,0.11,-272.57,-272.64,-22,582,-6,23.6,2.0,-28.3,23.7,2.2,-27.5,5.73,2.51,-15.6,29.6
2013-12-31 00:26:00,0.0,1.92691,0.00038,401.135,0.000,0.0732,0.0006,140.001,45.000,31791.00763,1.92825,401.488,35.186,45.059,45.000,0.00,0.11,-272.57,-272.64,-22,582,-6,23.6,2.0,-28.3,23.7,2.2,-27.6,5.73,2.50,-15.6,29.7
2013-12-31 00:27:00,0.0,1.92745,0.00038,401.135,0.000,0.0728,0.0008,140.003,45.000,31791.90968,1.92865,401.486,35.188,45.059,45.000,0.00,0.35,-270.64,-272.50,-22,582,-6,23.6,2.0,-28.3,23.7,2.2,-27.5,5.42,2.59,-17.8,29.7
2013-12-31 00:28:00,0.0,1.92709,0.00049,401.135,0.000,0.0728,0.0021,140.009,45.000,31794.06386,1.92867,401.485,35.188,45.059,45.000,0.00,0.11,-272.57,-272.64,-22,582,-6,23.6,2.0,-28.3,23.7,2.2,-27.6,5.73,2.51,-15.6,29.7
2013-12-31 00:29:00,0.0,1.92730,0.00035,401.135,0.000,0.0733,0.0005,140.003,45.000,31791.65927,1.92864,401.489,35.196,45.059,45.000,0.00,0.11,-272.57,-272.63,-22,582,-6,23.6,2.0,-28.2,23.7,2.1,-27.7,5.73,2.54,-15.6,29.7
2013-12-31 00:30:00,0.0,1.92732,0.00028,401.135,0.000,0.0743,0.0015,140.004,45.000,31792.56580,1.92879,401.492,35.188,45.059,45.000,0.00,0.11,-272.58,-272.64,-21,582,-6,23.6,2.0,-28.2,23.7,2.2,-27.6,5.73,2.56,-15.6,29.6
2013-12-31 00:31:00,0.0,1.92696,0.00017,401.135,0.000,0.0748,0.0010,139.998,45.000,31792.10562,1.92837,401.495,35.195,45.059,45.000,0.00,0.11,-272.57,-272.64,-22,582,-6,23.6,2.0,-28.2,23.7,2.2,-27.6,5.73,2.55,-15.6,29.7
2013-12-31 00:32:00,0.0,1.92692,0.00028,401.135,0.000,0.0747,0.0010,140.002,45.000,31796.29608,1.92830,401.495,35.195,45.059,45.000,0.00,0.11,-272.57,-272.63,-22,582,-6,23.6,2.0,-28.3,23.8,2.2,-27.6,5.73,2.54,-15.6,29.7
2013-12-31 00:33:00,0.0,1.92693,0.00017,401.135,0.000,0.0720,0.0014,139.991,45.000,31794.59224,1.92841,401.486,35.210,45.059,45.000,0.00,0.11,-272.57,-272.63,-21,582,-6,23.6,2.0,-28.4,23.7,2.1,-27.6,5.73,2.52,-15.6,29.7
2013-12-31 00:34:00,0.0,1.92655,0.00030,401.135,0.000,0.0722,0.0007,139.996,45.000,31796.72232,1.92798,401.482,35.239,45.059,45.000,0.00,0.11,-272.57,-272.64,-21,582,-6,23.6,2.0,-28.4,23.7,2.1,-27.7,5.73,2.50,-15.6,29.7
2013-12-31 00:35:00,0.0,1.92694,0.00047,401.135,0.000,0.0729,0.0005,140.002,45.000,31796.71419,1.92809,401.486,35.220,45.059,45.000,0.00,0.11,-272.57,-272.63,-22,582,-6,23.7,2.0,-28.4,23.7,2.1,-27.8,5.73,2.49,-15.6,29.7
2013-12-31 00:36:00,0.0,1.92704,0.00032,401.135,0.000,0.0726,0.0030,139.999,45.000,31797.65430,1.92846,401.482,35.245,45.059,45.000,0.00,0.11,-272.57,-272.63,-22,582,-6,23.7,2.0,-28.4,23.7,2.1,-27.8,5.73,2.51,-15.6,29.7
2013-12-31 00:37:00,0.0,1.92713,0.00038,401.135,0.000,0.0723,0.0005,140.002,45.000,31798.48326,1.92865,401.488,35.250,45.059,45.000,0.00,0.11,-272.58,-272.64,-22,582,-6,23.7,2.0,-28.3,23.8,2.1,-27.7,5.73,2.54,-15.6,29.7
2013-12-31 00:38:00,0.0,1.92711,0.00042,401.135,0.000,0.0743,0.0011,139.999,45.000,31797.94207,1.92848,401.491,35.250,45.059,45.000,0.00,0.11,-272.57,-272.64,-22,582,-6,23.7,2.0,-28.4,23.8,2.1,-27.7,5.73,2.55,-15.6,29.7
2013-12-31 00:39:00,0.0,1.92682,0.00037,401.135,0.000,0.0764,0.0015,139.996,45.000,31798.37536,1.92830,401.501,35.250,45.059,45.000,0.00,0.11,-272.57,-272.63,-22,582,-6,23.7,2.0,-28.4,23.8,2.1,-27.7,5.73,2.56,-15.6,29.7
2013-12-31 00:40:00,0.0,1.92719,0.00025,401.135,0.000,0.0733,0.0029,140.006,45.000,31798.92634,1.92846,401.491,35.250,45.059,45.000,0.00,0.11,-272.57,-272.64,-22,582,-6,23.7,2.0,-28.3,23.8,2.1,-27.7,5.73,2.54,-15.6,29.7
2013-12-31 00:41:00,0.0,1.92728,0.00027,401.135,0.000,0.0728,0.0011,139.994,45.000,31797.58246,1.92868,401.484,35.250,45.059,45.000,0.00,0.11,-272.57,-272.64,-22,582,-6,23.7,2.0,-28.4,23.8,2.1,-27.6,5.73,2.52,-15.6,29.7
2013-12-31 00:42:00,0.0,1.92777,0.00049,401.135,0.000,0.0716,0.0015,139.999,45.000,31800.46335,1.92896,401.482,35.250,45.059,45.000,0.00,0.11,-272.57,-272.64,-22,582,-6,23.7,2.0,-28.4,23.8,2.2,-27.6,5.73,2.50,-15.6,29.7
2013-12-31 00:43:00,0.0,1.92781,0.00047,401.135,0.000,0.0728,0.0001,140.005,45.000,31801.98401,1.92915,401.485,35.250,45.059,45.000,0.00,0.11,-272.57,-272.64,-22,582,-6,23.7,2.0,-28.3,23.8,2.1,-27.7,5.73,2.49,-15.6,29.7
2013-12-31 00:44:00,0.0,1.92845,0.00049,401.135,0.000,0.0736,0.0011,139.999,45.000,31801.49899,1.92979,401.489,35.250,45.059,45.000,0.00,0.11,-272.57,-272.64,-22,582,-6,23.7,2.0,-28.3,23.8,2.2,-27.6,5.73,2.51,-15.5,29.7
2013-12-31 00:45:00,0.0,1.92767,0.00021,401.135,0.000,0.0732,0.0012,140.006,45.000,31803.52157,1.92931,401.488,35.250,45.059,45.000,0.00,0.11,-272.57,-272.63,-22,582,-6,23.7,2.0,-28.4,23.8,2.2,-27.6,5.73,2.53,-15.6,29.7
2013-12-31 00:46:00,0.0,1.92776,0.00037,401.135,0.000,0.0725,0.0013,140.004,45.000,31802.87228,1.92905,401.486,35.258,45.059,45.000,0.00,0.11,-272.58,-272.63,-22,582,-6,23.7,2.0,-28.3,23.8,2.2,-27.6,5.73,2.56,-15.5,29.7
2013-12-31 00:47:00,0.0,1.92637,0.00072,401.135,0.000,0.0722,0.0018,140.000,45.000,31805.04261,1.92805,401.483,35.253,45.059,45.000,0.00,0.11,-272.57,-272.63,-22,582,-6,23.7,2.0,-28.3,23.8,2.1,-27.6,5.73,2.55,-15.5,29.7
2013-12-31 00:48:00,0.0,1.92632,0.00019,401.135,0.000,0.0726,0.0011,140.002,45.000,31805.04923,1.92772,401.484,35.254,45.059,45.000,0.00,0.11,-272.57,-272.63,-22,582,-6,23.7,2.0,-28.3,23.8,2.1,-27.6,5.73,2.54,-15.5,29.7
2013-12-31 00:49:00,0.0,1.92630,0.00034,401.135,0.000,0.0723,0.0003,139.999,45.000,31804.07319,1.92764,401.483,35.263,45.059,45.000,0.00,0.11,-272.57,-272.64,-22,582,-6,23.7,2.0,-28.3,23.8,2.2,-27.6,5.73,2.51,-15.5,29.7
2013-12-31 00:50:00,0.0,1.92677,0.00025,401.135,0.000,0.0728,0.0010,140.007,45.000,31805.87434,1.92804,401.485,35.250,45.059,45.000,0.00,0.11,-272.57,-272.64,-22,582,-6,23.8,2.0,-28.3,23.8,2.2,-27.6,5.73,2.50,-15.5,29.8
2013-12-31 00:51:00,0.0,1.92766,0.00074,401.135,0.000,0.0730,0.0020,139.997,45.000,31801.58815,1.92893,401.487,35.259,45.059,45.000,0.00,0.11,-272.58,-272.64,-22,582,-6,23.8,2.0,-28.3,23.8,2.1,-27.7,5.73,2.50,-15.5,29.7
2013-12-31 00:52:00,0.0,1.92793,0.00040,401.135,0.000,0.0727,0.0009,140.002,45.000,31802.81692,1.92923,401.486,35.251,45.059,45.000,0.00,0.11,-272.57,-272.64,-22,582,-6,23.8,2.0,-28.3,23.8,2.1,-27.7,5.73,2.51,-15.5,29.7
2013-12-31 00:53:00,0.0,1.92723,0.00032,401.135,0.000,0.0730,0.0023,140.003,45.000,31805.36846,1.92874,401.486,35.278,45.059,45.000,0.00,0.11,-272.59,-272.62,-22,582,-6,23.8,2.0,-28.3,23.8,2.1,-27.7,5.73,2.54,-15.5,29.8
2013-12-31 00:54:00,0.0,1.92690,0.00035,401.135,0.000,0.0752,0.0016,139.998,45.000,31803.84770,1.92826,401.497,35.270,45.059,45.000,0.00,0.11,-272.57,-272.64,-22,582,-6,23.7,2.0,-28.3,23.8,2.1,-27.7,5.73,2.55,-15.5,29.7
2013-12-31 00:55:00,0.0,1.92808,0.00039,401.135,0.000,0.0728,0.0018,140.005,45.000,31805.42144,1.92930,401.486,35.292,45.059,45.000,0.00,0.11,-272.58,-272.65,-22,582,-6,23.7,2.0,-28.4,23.8,2.1,-27.7,5.73,2.56,-15.5,29.8
2013-12-31 00:56:00,0.0,1.92771,0.00018,401.135,0.000,0.0725,0.0016,140.002,45.000,31803.90703,1.92922,401.487,35.313,45.059,45.000,0.00,0.11,-272.58,-272.64,-22,582,-6,23.8,2.0,-28.3,23.8,2.1,-27.7,5.73,2.53,-15.5,29.7
2013-12-31 00:57:00,0.0,1.92651,0.00054,401.135,0.000,0.0725,0.0008,140.002,45.000,31804.74963,1.92822,401.484,35.311,45.059,45.000,0.00,0.11,-272.58,-272.63,-22,582,-6,23.8,2.0,-28.3,23.8,2.1,-27.7,5.73,2.50,-15.5,29.8
2013-12-31 00:58:00,0.0,1.92667,0.00104,401.135,0.000,0.0738,0.0010,140.004,45.000,31803.27049,1.92754,401.491,35.303,45.059,45.000,0.00,0.11,-272.57,-272.64,-22,582,-6,23.8,2.0,-28.3,23.8,2.1,-27.7,5.73,2.49,-15.5,29.8
2013-12-31 00:59:00,0.0,1.92772,0.00067,401.135,0.000,0.0726,0.0006,140.006,45.000,31804.48555,1.92932,401.485,35.313,45.059,45.000,0.00,0.11,-272.57,-272.63,-22,582,-6,23.8,2.0,-28.3,23.8,2.1,-27.7,5.73,2.50,-15.5,29.8
2013-12-31 01:00:00,0.0,1.92669,0.00061,401.135,0.000,0.0733,0.0013,139.998,45.000,31801.21817,1.92827,401.487,35.313,45.059,45.000,0.00,0.11,-272.57,-272.64,-22,582,-6,23.8,2.0,-28.3,23.8,2.1,-27.7,5.73,2.52,-15.5,29.8
2013-12-31 01:01:00,0.0,1.92686,0.00106,401.135,0.000,0.0714,0.0017,140.001,45.000,31803.39384,1.92780,401.481,35.313,45.059,45.000,0.00,0.11,-272.57,-272.64,-22,582,-6,23.8,2.0,-28.3,23.9,2.1,-27.7,5.73,2.55,-15.5,29.8
2013-12-31 01:02:00,0.0,1.92776,0.00041,401.135,0.000,0.0738,0.0014,140.009,45.000,31805.22268,1.92915,401.487,35.317,45.059,45.000,0.00,0.11,-272.56,-272.64,-22,582,-6,23.8,2.0,-28.3,23.9,2.1,-27.7,5.73,2.55,-15.5,29.8
2013-12-31 01:03:00,0.0,1.92710,0.00054,401.135,0.000,0.0743,0.0013,139.998,45.000,31802.66249,1.92883,401.494,35.327,45.059,45.000,0.00,0.11,-272.57,-272.63,-22,582,-6,23.8,2.0,-28.3,23.9,2.1,-27.7,5.73,2.54,-15.5,29.8
2013-12-31 01:04:00,0.0,1.92660,0.00015,401.135,0.000,0.0729,0.0017,140.008,45.000,31805.50638,1.92798,401.488,35.334,45.059,45.000,0.00,0.11,-272.57,-272.64,-22,582,-6,23.8,2.0,-28.3,23.9,2.1,-27.7,5.73,2.52,-15.5,29.8
2013-12-31 01:05:00,0.0,1.92676,0.00047,401.135,0.000,0.0733,0.0018,140.004,45.000,31802.57152,1.92802,401.488,35.346,45.059,45.000,0.00,0.11,-272.57,-272.64,-22,582,-6,23.8,2.0,-28.3,23.9,2.1,-27.6,5.73,2.50,-15.5,29.8
2013-12-31 01:06:00,0.0,1.92762,0.00035,401.135,0.000,0.0742,0.0024,140.003,45.000,31804.07475,1.92889,401.488,35.357,45.059,45.000,0.00,0.11,-272.57,-272.63,-22,582,-6,23.8,2.0,-28.3,23.9,2.2,-27.5,5.73,2.49,-15.5,29.8
2013-12-31 01:07:00,0.0,1.92831,0.00028,401.135,0.000,0.0734,0.0007,139.996,45.000,31804.98228,1.92960,401.490,35.369,45.059,45.000,0.00,0.11,-272.57,-272.64,-22,582,-6,23.8,2.0,-28.3,23.9,2.1,-27.6,5.73,2.50,-15.5,29.8
2013-12-31 01:08:00,0.0,1.92832,0.00014,401.135,0.000,0.0736,0.0015,140.007,45.000,31808.44977,1.92966,401.489,35.368,45.059,45.000,0.00,0.11,-272.57,-272.64,-22,582,-6,23.8,2.0,-28.3,23.9,2.1,-27.5,5.73,2.54,-15.5,29.8
2013-12-31 01:09:00,0.0,1.92861,0.00022,401.135,0.000,0.0750,0.0034,140.008,45.000,31810.79192,1.92999,401.497,35.362,45.059,45.000,0.00,0.11,-272.57,-272.63,-22,582,-6,23.8,2.0,-28.3,23.9,2.2,-27.5,5.73,2.55,-15.5,29.8
2013-12-31 01:10:00,0.0,1.92785,0.00036,401.135,0.000,0.0721,0.0020,140.000,45.000,31807.38716,1.92935,401.483,35.375,45.059,45.000,0.00,0.11,-272.57,-272.63,-22,582,-6,23.8,2.0,-28.3,23.9,2.1,-27.6,5.73,2.55,-15.5,29.8
2013-12-31 01:11:00,0.0,1.92796,0.00131,401.135,0.000,0.0739,0.0008,140.004,45.000,31810.32642,1.92898,401.490,35.375,45.059,45.000,0.00,0.11,-272.57,-272.64,-22,582,-6,23.8,2.0,-28.3,23.9,2.1,-27.7,5.73,2.53,-15.4,29.8
2013-12-31 01:12:00,0.0,1.92861,0.00131,401.135,0.000,0.0725,0.0018,140.005,45.000,31810.25979,1.93062,401.486,35.375,45.059,45.000,0.00,0.11,-272.57,-272.63,-22,582,-6,23.8,2.0,-28.3,23.9,2.1,-27.7,5.73,2.50,-15.5,29.8
2013-12-31 01:13:00,0.0,1.92765,0.00039,401.135,0.000,0.0721,0.0025,140.001,45.000,31808.62632,1.92899,401.482,35.375,45.059,45.000,0.00,0.11,-272.56,-272.63,-22,582,-6,23.8,2.0,-28.3,23.9,2.1,-27.7,5.73,2.49,-15.4,29.8
2013-12-31 01:14:00,0.0,1.92773,0.00041,401.135,0.000,0.0724,0.0014,140.003,45.000,31810.10756,1.92898,401.483,35.375,45.059,45.000,0.00,0.11,-272.57,-272.64,-22,582,-6,23.9,2.0,-28.3,23.9,2.1,-27.6,5.73,2.50,-15.5,29.9
2013-12-31 01:15:00,0.0,1.92832,0.00036,401.135,0.000,0.0742,0.0021,139.994,45.000,31807.74842,1.92955,401.491,35.375,45.059,45.000,0.00,0.11,-272.57,-272.63,-22,582,-6,23.9,2.0,-28.2,23.9,2.1,-27.7,5.73,2.53,-15.4,29.9
2013-12-31 01:16:00,0.0,1.92736,0.00082,401.135,0.000,0.0726,0.0011,139.996,45.000,31811.14113,1.92934,401.487,35.384,45.059,45.000,0.00,0.11,-272.57,-272.63,-22,582,-6,23.9,2.0,-28.2,23.9,2.1,-27.7,5.73,2.55,-15.4,29.8
2013-12-31 01:17:00,0.0,1.92638,0.00022,401.135,0.000,0.0727,0.0011,140.000,45.000,31811.52056,1.92774,401.485,35.377,45.059,45.000,0.00,0.11,-272.57,-272.63,-22,582,-6,23.9,2.0,-28.2,23.9,2.1,-27.7,5.73,2.55,-15.4,29.9
2013-12-31 01:18:00,0.0,1.92574,0.00032,401.217,0.063,0.0750,0.0018,139.996,45.000,31809.88053,1.92729,401.567,35.378,45.059,45.000,0.00,0.11,-272.57,-272.64,-22,582,-6,23.9,2.0,-28.3,23.9,2.1,-27.7,5.73,2.54,-15.4,29.9
2013-12-31 01:19:00,0.0,1.92536,0.00019,401.265,0.000,0.0735,0.0016,140.002,45.000,31812.97495,1.92674,401.618,35.398,45.059,45.000,0.00,0.11,-272.56,-272.64,-22,582,-6,23.9,2.0,-28.2,23.9,2.1,-27.6,5.73,2.50,-15.4,29.9
2013-12-31 01:20:00,0.0,1.92565,0.00040,401.265,0.000,0.0735,0.0015,139.993,45.000,31810.86825,1.92700,401.621,35.383,45.059,45.000,0.00,0.11,-272.57,-272.63,-22,582,-6,23.9,2.0,-28.2,23.9,2.1,-27.6,5.73,2.49,-15.4,29.9
2013-12-31 01:21:00,0.0,1.92627,0.00060,401.265,0.000,0.0735,0.0007,140.003,45.000,31814.53846,1.92740,401.619,35.378,45.059,45.000,0.00,0.11,-272.57,-272.64,-22,582,-6,23.9,2.0,-28.3,23.9,2.1,-27.6,5.73,2.50,-15.4,29.9
2013-12-31 01:22:00,0.0,1.92761,0.00067,401.265,0.000,0.0726,0.0008,140.001,45.000,31812.39790,1.92901,401.615,35.404,45.059,45.000,0.00,0.11,-272.57,-272.63,-22,582,-6,23.9,2.0,-28.3,24.0,2.1,-27.6,5.73,2.53,-15.4,29.9
2013-12-31 01:23:00,0.0,1.92595,0.00042,401.265,0.000,0.0726,0.0020,140.002,45.000,31813.28511,1.92755,401.616,35.403,45.059,45.000,0.00,0.11,-272.57,-272.63,-22,582,-6,23.9,2.0,-28.3,24.0,2.1,-27.6,5.73,2.55,-15.4,29.9
2013-12-31 01:24:00,0.0,1.92606,0.00023,401.369,0.049,0.0742,0.0011,139.998,45.000,31811.72579,1.92745,401.714,35.407,45.059,45.000,0.00,0.11,-272.57,-272.64,-22,582,-6,23.9,2.0,-28.2,24.0,2.1,-27.6,5.73,2.55,-15.4,29.9
2013-12-31 01:25:00,0.0,1.92612,0.00042,401.392,0.000,0.0726,0.0015,139.999,45.000,31814.71575,1.92743,401.741,35.438,45.059,45.000,0.00,0.11,-272.57,-272.64,-22,583,-6,23.9,2.0,-28.2,24.0,2.1,-27.5,5.73,2.53,-15.4,29.9
2013-12-31 01:26:00,0.0,1.92636,0.00028,401.392,0.000,0.0759,0.0020,140.002,45.000,31813.42882,1.92776,401.756,35.438,45.059,45.000,0.00,0.11,-272.57,-272.63,-22,582,-6,23.9,2.0,-28.2,24.0,2.1,-27.5,5.73,2.50,-15.4,29.9
2013-12-31 01:27:00,0.0,1.92629,0.00027,401.392,0.000,0.0724,0.0014,140.002,45.000,31813.85549,1.92763,401.745,35.438,45.059,45.000,0.00,0.11,-272.57,-272.63,-22,582,-6,23.9,2.0,-28.1,24.0,2.1,-27.5,5.73,2.49,-15.4,29.9
2013-12-31 01:28:00,0.0,1.92665,0.00058,401.392,0.000,0.0734,0.0011,140.002,45.000,31814.91813,1.92789,401.745,35.438,45.059,45.000,0.00,0.11,-272.57,-272.64,-22,582,-6,23.9,2.0,-28.1,24.0,2.1,-27.5,5.73,2.50,-15.4,29.9
2013-12-31 01:29:00,0.0,1.92724,0.00040,401.392,0.000,0.0732,0.0023,140.006,45.000,31815.98792,1.92866,401.744,35.438,45.059,45.000,0.00,0.11,-272.57,-272.63,-22,582,-6,23.9,2.0,-28.1,24.0,2.1,-27.5,5.73,2.53,-15.4,30.0
2013-12-31 01:30:00,0.0,1.92737,0.00029,401.392,0.000,0.0745,0.0018,140.001,45.000,31812.70494,1.92874,401.752,35.438,45.059,45.000,0.00,0.11,-272.57,-272.63,-22,582,-6,23.9,2.0,-28.1,24.0,2.1,-27.5,5.73,2.55,-15.4,30.0
2013-12-31 01:31:00,0.0,1.92719,0.00053,401.392,0.000,0.0742,0.0013,140.007,45.000,31816.94740,1.92880,401.750,35.438,45.059,45.000,0.00,0.11,-272.57,-272.64,-22,582,-6,23.9,2.0,-28.1,24.0,2.2,-27.4,5.73,2.55,-15.4,30.0
2013-12-31 01:32:00,0.0,1.92617,0.00021,401.392,0.000,0.0741,0.0005,139.999,45.000,31816.17404,1.92765,401.749,35.442,45.059,45.000,0.00,0.11,-272.57,-272.64,-22,583,-6,24.0,2.0,-28.1,24.0,2.1,-27.5,5.73,2.53,-15.4,30.0
2013-12-31 01:33:00,0.0,1.92752,0.00075,401.392,0.000,0.0735,0.0018,140.006,45.000,31818.53975,1.92849,401.748,35.443,45.059,45.000,0.00,0.11,-272.56,-272.63,-22,583,-6,23.9,2.0,-28.1,24.0,2.2,-27.4,5.73,2.50,-15.4,29.9
2013-12-31 01:34:00,0.0,1.92864,0.00092,401.392,0.000,0.0734,0.0015,140.005,45.000,31818.64586,1.92998,401.745,35.452,45.059,45.000,0.00,0.11,-272.57,-272.64,-22,583,-6,24.0,2.0,-28.1,24.0,2.2,-27.4,5.73,2.49,-15.4,30.0
2013-12-31 01:35:00,0.0,1.93065,0.00110,401.392,0.000,0.0730,0.0014,140.002,45.000,31816.78915,1.93147,401.744,35.451,45.059,45.000,0.00,0.11,-272.57,-272.64,-22,583,-6,24.0,2.0,-28.1,24.0,2.1,-27.5,5.73,2.50,-15.4,30.0
2013-12-31 01:36:00,0.0,1.93058,0.00035,401.392,0.000,0.0743,0.0018,139.999,45.000,31816.14360,1.93196,401.750,35.474,45.059,45.000,0.00,0.11,-272.57,-272.64,-22,583,-6,24.0,2.0,-28.0,24.0,2.1,-27.5,5.73,2.53,-15.4,30.0
2013-12-31 01:37:00,0.0,1.93101,0.00031,401.392,0.000,0.0749,0.0010,140.004,45.000,31816.27573,1.93241,401.752,35.479,45.059,45.000,0.00,0.11,-272.57,-272.64,-22,583,-6,24.0,2.0,-28.0,24.0,2.2,-27.4,5.73,2.55,-15.4,30.0
2013-12-31 01:38:00,0.0,1.93099,0.00027,401.392,0.000,0.0753,0.0013,139.993,45.000,31814.17174,1.93238,401.755,35.481,45.059,45.000,0.00,0.11,-272.57,-272.64,-22,583,-6,24.0,2.1,-27.9,24.0,2.2,-27.3,5.73,2.56,-15.4,30.0
2013-12-31 01:39:00,0.0,1.93141,0.00022,401.392,0.000,0.0753,0.0008,140.002,45.000,31818.51351,1.93280,401.755,35.494,45.059,45.000,0.00,0.11,-272.57,-272.63,-22,583,-6,24.0,2.1,-27.9,24.0,2.2,-27.3,5.73,2.52,-15.3,30.0
2013-12-31 01:40:00,0.0,1.93148,0.00020,401.392,0.000,0.0760,0.0012,140.003,45.000,31817.24633,1.93291,401.759,35.478,45.059,45.000,0.00,0.11,-272.57,-272.64,-22,583,-6,24.0,2.1,-27.8,24.0,2.2,-27.1,5.73,2.49,-15.3,30.0
2013-12-31 01:41:00,0.0,1.93134,0.00013,401.392,0.000,0.0767,0.0001,140.001,45.000,31817.02060,1.93282,401.762,35.479,45.059,45.000,0.00,0.11,-272.57,-272.64,-22,583,-6,24.0,2.1,-27.7,24.0,2.2,-27.1,5.73,2.49,-15.4,30.0
2013-12-31 01:42:00,0.0,1.93158,0.00008,401.392,0.000,0.0774,0.0010,140.006,45.000,31819.40377,1.93301,401.764,35.491,45.059,45.000,0.00,0.11,-272.57,-272.63,-22,583,-6,24.0,2.1,-27.6,24.0,2.2,-27.0,5.73,2.51,-15.3,30.0
2013-12-31 01:43:00,0.0,1.93160,0.00028,401.392,0.000,0.0787,0.0017,139.999,45.000,31817.08254,1.93304,401.770,35.500,45.059,45.000,0.00,0.11,-272.57,-272.63,-22,583,-6,24.0,2.1,-27.5,24.0,2.3,-26.9,5.73,2.54,-15.3,30.0
2013-12-31 01:44:00,0.0,1.93148,0.00014,401.392,0.000,0.0793,0.0022,140.000,45.000,31818.00033,1.93306,401.776,35.497,45.059,45.000,0.00,0.11,-272.56,-272.64,-22,583,-6,24.0,2.2,-27.4,24.1,2.3,-26.9,5.73,2.55,-15.4,30.0
2013-12-31 01:45:00,0.0,1.93127,0.00026,401.392,0.000,0.0792,0.0013,139.997,45.000,31817.39500,1.93280,401.775,35.500,45.059,45.000,0.00,0.11,-272.57,-272.64,-22,583,-6,24.0,2.2,-27.4,24.0,2.3,-26.8,5.73,2.54,-15.3,30.0